Weather History for KFYV - June, 2014

Change the Weather History Date:

Tuesday, June 17, 2014

  Actual Average Record
Temperature  
Mean Temperature 79 °F 73 °F  
Max Temperature 85 °F 84 °F 96 °F (1953)
Min Temperature 72 °F 63 °F 47 °F (1981)
Cooling Degree Days 14 9  
Month to date cooling degree days 122 114  
Year to date cooling degree days 270 227  
Since 1 June cooling degree days 122 114  
Growing Degree Days 28 (Base 50)    
Moisture  
Dew Point 71 °F    
Average Humidity 79    
Maximum Humidity 93    
Minimum Humidity 65    
Precipitation  
Precipitation 0.01 in 0.17 in 2.40 in (2000)
Month to date precipitation 2.89 2.96  
Year to date precipitation 17.41 23.17  
Sea Level Pressure  
Sea Level Pressure 29.96 in    
Wind  
Wind Speed 13 mph (South)    
Max Wind Speed 23 mph    
Max Gust Speed 31 mph    
Visibility 10 miles    
Events      
T = Trace of Precipitation, MM = Missing Value Source: NWS Daily Summary

Daily Weather History Graph

Daily Weather History Graph

Search for Another Location

Airport or City:

Trip Planner

Search our weather history database for the weather conditions in past years. The results will help you decide how hot, cold, wet, or windy it might be!

Date:

Astronomy

Jun. 17, 2014 Rise Set
Actual Time 5:59 AM CDT 8:35 PM CDT
Civil Twilight 5:29 AM CDT 9:06 PM CDT
Nautical Twilight 4:51 AM CDT 9:43 PM CDT
Astronomical Twilight 4:09 AM CDT 10:25 PM CDT
Moon No Moon Rise 11:06 AM CDT (6/17)
Length of Visible Light 15h 36m
Length of Day
14h 36m
Waning Gibbous, 73% of the Moon is Illuminated
Jun 17
Waning Gibbous
Jun 19
Last Quarter
Jun 27
New
Jul 5
First Quarter
Jul 12
Full

Hourly Weather History & Observations

Time (CDT) Temp. Heat Index Dew Point Humidity Pressure Visibility Wind Dir Wind Speed Gust Speed Precip Events Conditions
12:53 AM 77.0 °F - 72.0 °F 84% 29.92 in 10.0 mi South 15.0 mph 25.3 mph N/A   Clear
1:53 AM 75.0 °F - 71.1 °F 87% 29.92 in 10.0 mi South 10.4 mph - N/A   Clear
2:53 AM 75.0 °F - 71.1 °F 87% 29.94 in 10.0 mi South 16.1 mph 23.0 mph N/A   Clear
3:53 AM 73.0 °F - 70.0 °F 90% 29.94 in 10.0 mi South 8.1 mph - N/A   Partly Cloudy
4:53 AM 73.0 °F - 70.0 °F 90% 29.94 in 10.0 mi South 10.4 mph - N/A   Clear
5:53 AM 73.0 °F - 70.0 °F 90% 29.95 in 10.0 mi South 10.4 mph 17.3 mph N/A   Clear
6:27 AM 73.4 °F - 71.6 °F 94% 30.00 in 10.0 mi South 10.4 mph 23.0 mph N/A   Mostly Cloudy
6:53 AM 73.9 °F - 71.1 °F 91% 29.96 in 10.0 mi South 11.5 mph - N/A   Mostly Cloudy
7:46 AM 75.2 °F - 71.6 °F 89% 30.02 in 10.0 mi South 13.8 mph - N/A   Mostly Cloudy
7:53 AM 75.0 °F - 71.1 °F 87% 29.98 in 10.0 mi South 10.4 mph - N/A   Mostly Cloudy
8:22 AM 75.2 °F - 71.6 °F 89% 30.03 in 10.0 mi South 12.7 mph 20.7 mph N/A   Scattered Clouds
8:53 AM 77.0 °F - 71.1 °F 82% 30.00 in 10.0 mi SSW 13.8 mph 25.3 mph N/A   Mostly Cloudy
9:53 AM 78.1 °F - 71.1 °F 79% 29.99 in - South 17.3 mph 26.5 mph N/A   Scattered Clouds
10:53 AM 81.0 °F 84.4 °F 70.0 °F 69% 29.99 in 10.0 mi North - - 0.01 in   Scattered Clouds
11:53 AM 81.0 °F 84.1 °F 69.1 °F 67% 29.99 in 10.0 mi SSW 16.1 mph 27.6 mph N/A   Scattered Clouds
12:53 PM 82.0 °F 85.9 °F 70.0 °F 67% 29.99 in 10.0 mi SSW 18.4 mph 26.5 mph N/A   Scattered Clouds
1:53 PM 82.9 °F 87.5 °F 71.1 °F 67% 29.96 in 10.0 mi South 18.4 mph 27.6 mph N/A   Mostly Cloudy
2:53 PM 84.9 °F 90.7 °F 72.0 °F 65% 29.94 in 10.0 mi South 10.4 mph 24.2 mph N/A   Scattered Clouds
3:53 PM 84.0 °F 89.0 °F 71.1 °F 65% 29.93 in 10.0 mi South 16.1 mph 21.9 mph N/A   Partly Cloudy
4:53 PM 84.0 °F 89.0 °F 71.1 °F 65% 29.92 in 10.0 mi South 18.4 mph 25.3 mph N/A   Scattered Clouds
5:53 PM 82.9 °F 88.0 °F 72.0 °F 69% 29.92 in 10.0 mi South 12.7 mph - N/A   Clear
6:53 PM 82.0 °F 86.7 °F 72.0 °F 71% 29.92 in 10.0 mi SSE 8.1 mph - N/A   Clear
7:53 PM 81.0 °F 84.9 °F 71.1 °F 72% 29.92 in 10.0 mi SSE 11.5 mph 19.6 mph N/A   Clear
8:53 PM 78.1 °F - 71.1 °F 79% 29.92 in 10.0 mi South 12.7 mph - N/A   Clear
9:53 PM 78.1 °F - 71.1 °F 79% 29.93 in 10.0 mi South 11.5 mph 21.9 mph N/A   Clear
10:53 PM 75.9 °F - 68.0 °F 76% 29.94 in 10.0 mi South 11.5 mph 19.6 mph N/A   Clear
11:53 PM 75.0 °F - 69.1 °F 82% 29.95 in 10.0 mi South 12.7 mph - N/A   Clear